When you browse on this site, cookies collect data to enhance your experience and personalize the content and advertising you see.
Visit our Privacy Policy to learn more. By continuing to use the site, you agree to this use of cookies and data.
  • In Österreich
  • Länderverzeichnis
  • Für 7 Tage
  • Wassertemperatur
  • Satellitenkarten
  • Wetterkarte
  • News
  • Widgets
  • user-avatar
    Anmelden

    Stündliche Wetter Fier

    Heute, 24 März, Sonntag

    Zeit Temperatur Niederschläge Wind Luftdruck Luftfeuchtigkeit
    00:00 +14°C° 0 mm 1 m/S 763 mmHg 60%
    01:00 +14°C° 0 mm 2 m/S 763 mmHg 56%
    02:00 +14°C° 0 mm 2 m/S 763 mmHg 54%
    03:00 +14°C° 0 mm 2 m/S 763 mmHg 53%
    04:00 +13°C° 0 mm 2 m/S 763 mmHg 52%
    05:00 +14°C° 0 mm 2 m/S 763 mmHg 54%
    06:00 +14°C° 0 mm 2 m/S 763 mmHg 55%
    07:00 +15°C° 0 mm 2 m/S 763 mmHg 57%
    08:00 +18°C° 0 mm 1 m/S 763 mmHg 50%
    09:00 +20°C° 0 mm 1 m/S 763 mmHg 43%
    10:00 +23°C° 0 mm 1 m/S 763 mmHg 36%
    11:00 +23°C° 0 mm 2 m/S 763 mmHg 35%
    12:00 +24°C° 0 mm 2 m/S 763 mmHg 35%
    13:00 +24°C° 0 mm 3 m/S 763 mmHg 35%
    14:00 +22°C° 0 mm 3 m/S 763 mmHg 38%
    15:00 +22°C° 0 mm 3 m/S 762 mmHg 42%
    16:00 +21°C° 0 mm 3 m/S 762 mmHg 46%
    17:00 +19°C° 0 mm 3 m/S 762 mmHg 51%
    18:00 +17°C° 0 mm 2 m/S 762 mmHg 56%
    19:00 +15°C° 0 mm 1 m/S 762 mmHg 62%
    20:00 +14°C° 0 mm 1 m/S 762 mmHg 62%
    21:00 +14°C° 0 mm 1 m/S 762 mmHg 63%
    22:00 +13°C° 0 mm 0 m/S 763 mmHg 63%
    23:00 +13°C° 0 mm 1 m/S 762 mmHg 63%

    Morgen, 25 März, Montag

    Zeit Temperatur Niederschläge Wind Luftdruck Luftfeuchtigkeit
    00:00 +13°C° 0 mm 1 m/S 762 mmHg 62%
    01:00 +13°C° 0 mm 1 m/S 762 mmHg 62%
    02:00 +13°C° 0 mm 1 m/S 762 mmHg 61%
    03:00 +12°C° 0 mm 1 m/S 762 mmHg 61%
    04:00 +12°C° 0 mm 1 m/S 761 mmHg 61%
    05:00 +13°C° 0 mm 1 m/S 761 mmHg 61%
    06:00 +14°C° 0 mm 1 m/S 761 mmHg 60%
    07:00 +14°C° 0 mm 1 m/S 761 mmHg 60%
    08:00 +16°C° 0 mm 1 m/S 761 mmHg 53%
    09:00 +19°C° 0 mm 1 m/S 760 mmHg 47%
    10:00 +20°C° 0 mm 1 m/S 760 mmHg 41%
    11:00 +20°C° 0 mm 2 m/S 760 mmHg 40%
    12:00 +20°C° 0 mm 3 m/S 759 mmHg 39%
    13:00 +21°C° 0 mm 3 m/S 759 mmHg 39%
    14:00 +20°C° 0 mm 3 m/S 758 mmHg 41%
    15:00 +20°C° 0 mm 2 m/S 758 mmHg 43%
    16:00 +19°C° 0 mm 2 m/S 757 mmHg 45%
    17:00 +18°C° 0 mm 2 m/S 757 mmHg 50%
    18:00 +16°C° 0 mm 1 m/S 757 mmHg 56%
    19:00 +14°C° 0 mm 1 m/S 757 mmHg 62%
    20:00 +14°C° 0 mm 1 m/S 757 mmHg 61%
    21:00 +14°C° 0 mm 2 m/S 757 mmHg 61%
    22:00 +13°C° 0 mm 2 m/S 757 mmHg 61%
    23:00 +13°C° 0 mm 2 m/S 757 mmHg 61%

    übermorgen, 26 März, Dienstag

    Zeit Temperatur Niederschläge Wind Luftdruck Luftfeuchtigkeit
    00:00 +13°C° 0 mm 2 m/S 757 mmHg 61%
    01:00 +13°C° 0 mm 2 m/S 757 mmHg 62%
    02:00 +13°C° 0 mm 2 m/S 756 mmHg 61%
    03:00 +13°C° 0 mm 2 m/S 756 mmHg 60%
    04:00 +13°C° 0 mm 2 m/S 756 mmHg 58%
    05:00 +13°C° 0 mm 2 m/S 757 mmHg 58%
    06:00 +14°C° 0 mm 2 m/S 757 mmHg 58%
    07:00 +14°C° 0 mm 2 m/S 757 mmHg 58%
    08:00 +16°C° 0 mm 1 m/S 757 mmHg 53%
    09:00 +18°C° 0 mm 1 m/S 757 mmHg 49%
    10:00 +20°C° 0 mm 1 m/S 757 mmHg 44%
    11:00 +20°C° 0 mm 2 m/S 757 mmHg 44%
    12:00 +20°C° 0 mm 3 m/S 757 mmHg 44%
    13:00 +21°C° 0 mm 4 m/S 757 mmHg 45%
    14:00 +20°C° 0 mm 4 m/S 758 mmHg 48%
    15:00 +20°C° 0 mm 4 m/S 758 mmHg 52%
    16:00 +19°C° 0 mm 4 m/S 758 mmHg 55%
    17:00 +17°C° 0 mm 3 m/S 758 mmHg 60%
    18:00 +16°C° 0 mm 2 m/S 759 mmHg 65%
    19:00 +14°C° 0 mm 1 m/S 760 mmHg 69%
    20:00 +14°C° 0 mm 1 m/S 760 mmHg 68%
    21:00 +14°C° 0 mm 1 m/S 761 mmHg 66%
    22:00 +14°C° 0 mm 2 m/S 761 mmHg 65%
    23:00 +13°C° 0 mm 2 m/S 762 mmHg 64%

    27 März, Mittwoch

    Zeit Temperatur Niederschläge Wind Luftdruck Luftfeuchtigkeit
    00:00 +13°C° 0 mm 2 m/S 762 mmHg 63%
    01:00 +12°C° 0 mm 2 m/S 762 mmHg 61%
    02:00 +11°C° 0 mm 3 m/S 762 mmHg 62%
    03:00 +11°C° 0 mm 3 m/S 762 mmHg 62%
    04:00 +10°C° 0 mm 3 m/S 762 mmHg 63%
    05:00 +11°C° 0 mm 3 m/S 762 mmHg 61%
    06:00 +11°C° 0 mm 3 m/S 762 mmHg 59%
    07:00 +12°C° 0 mm 3 m/S 762 mmHg 57%
    08:00 +14°C° 0.1 mm 3 m/S 763 mmHg 51%
    09:00 +16°C° 0.1 mm 2 m/S 763 mmHg 46%
    10:00 +18°C° 0.1 mm 2 m/S 763 mmHg 41%
    11:00 +18°C° 0.1 mm 2 m/S 763 mmHg 41%
    12:00 +20°C° 0.1 mm 1 m/S 763 mmHg 42%
    13:00 +20°C° 0.1 mm 1 m/S 762 mmHg 43%
    14:00 +19°C° 0.3 mm 1 m/S 762 mmHg 48%
    15:00 +17°C° 0.3 mm 2 m/S 762 mmHg 54%
    16:00 +17°C° 0.3 mm 2 m/S 762 mmHg 59%
    17:00 +16°C° 0.6 mm 2 m/S 762 mmHg 66%
    18:00 +15°C° 0.6 mm 2 m/S 762 mmHg 73%
    19:00 +13°C° 0.6 mm 2 m/S 763 mmHg 80%
    20:00 +13°C° 0.2 mm 2 m/S 763 mmHg 80%
    21:00 +13°C° 0.2 mm 2 m/S 763 mmHg 81%
    22:00 +13°C° 0.2 mm 2 m/S 764 mmHg 81%
    23:00 +13°C° 0 mm 2 m/S 764 mmHg 79%

    28 März, Donnerstag

    Zeit Temperatur Niederschläge Wind Luftdruck Luftfeuchtigkeit
    00:00 +12°C° 0 mm 2 m/S 763 mmHg 78%
    01:00 +12°C° 0 mm 2 m/S 763 mmHg 77%
    02:00 +12°C° 0.2 mm 2 m/S 763 mmHg 76%
    03:00 +12°C° 0.2 mm 2 m/S 763 mmHg 75%
    04:00 +12°C° 0.2 mm 1 m/S 763 mmHg 74%
    05:00 +12°C° 0.1 mm 2 m/S 763 mmHg 72%
    06:00 +12°C° 0.1 mm 2 m/S 763 mmHg 71%
    07:00 +12°C° 0.1 mm 2 m/S 764 mmHg 69%
    08:00 +13°C° 0 mm 3 m/S 764 mmHg 62%
    09:00 +16°C° 0 mm 3 m/S 764 mmHg 54%
    10:00 +17°C° 0 mm 4 m/S 764 mmHg 47%
    11:00 +18°C° 0 mm 4 m/S 764 mmHg 44%
    12:00 +18°C° 0 mm 4 m/S 764 mmHg 41%
    13:00 +19°C° 0 mm 4 m/S 764 mmHg 38%
    14:00 +19°C° 0 mm 4 m/S 764 mmHg 39%
    15:00 +18°C° 0 mm 4 m/S 764 mmHg 39%
    16:00 +17°C° 0 mm 5 m/S 764 mmHg 39%
    17:00 +15°C° 0 mm 4 m/S 764 mmHg 42%
    18:00 +14°C° 0 mm 4 m/S 764 mmHg 44%
    19:00 +12°C° 0 mm 4 m/S 764 mmHg 47%
    20:00 +11°C° 0 mm 4 m/S 765 mmHg 49%
    21:00 +11°C° 0 mm 3 m/S 765 mmHg 51%
    22:00 +10°C° 0 mm 3 m/S 765 mmHg 53%
    23:00 +10°C° 0 mm 3 m/S 765 mmHg 54%

    29 März, Freitag

    Zeit Temperatur Niederschläge Wind Luftdruck Luftfeuchtigkeit
    00:00 +9°C° 0 mm 3 m/S 765 mmHg 55%
    01:00 +9°C° 0 mm 3 m/S 765 mmHg 57%
    02:00 +9°C° 0 mm 3 m/S 765 mmHg 58%
    03:00 +8°C° 0 mm 3 m/S 765 mmHg 59%
    04:00 +8°C° 0 mm 3 m/S 765 mmHg 60%
    05:00 +9°C° 0 mm 3 m/S 765 mmHg 60%
    06:00 +9°C° 0 mm 3 m/S 765 mmHg 61%
    07:00 +10°C° 0 mm 3 m/S 765 mmHg 61%
    08:00 +12°C° 0 mm 4 m/S 765 mmHg 53%
    09:00 +14°C° 0 mm 4 m/S 765 mmHg 46%
    10:00 +17°C° 0 mm 4 m/S 765 mmHg 39%
    11:00 +18°C° 0 mm 4 m/S 765 mmHg 36%
    12:00 +17°C° 0 mm 5 m/S 764 mmHg 33%
    13:00 +19°C° 0 mm 5 m/S 764 mmHg 30%
    14:00 +19°C° 0 mm 5 m/S 764 mmHg 30%
    15:00 +17°C° 0 mm 5 m/S 763 mmHg 30%
    16:00 +17°C° 0 mm 5 m/S 763 mmHg 30%
    17:00 +15°C° 0 mm 5 m/S 763 mmHg 33%
    18:00 +14°C° 0 mm 4 m/S 764 mmHg 36%
    19:00 +12°C° 0 mm 4 m/S 764 mmHg 39%
    20:00 +11°C° 0 mm 4 m/S 764 mmHg 39%
    21:00 +10°C° 0 mm 4 m/S 765 mmHg 40%
    22:00 +10°C° 0 mm 3 m/S 765 mmHg 41%
    23:00 +9°C° 0 mm 3 m/S 765 mmHg 41%
    Mehr zeigen